NUSAT-5 (MARYAM) (43204 NORAD) Tracking and Keplerian Element Data

This shows tracking and keplerian element data for the satellite.

Feedback or suggestion? Click here.




ElementValue
Catalog43204
NameNUSAT-5 (MARYAM)
Epoch Orbit4291
Epoch Day317.8392814
Epoch Year2018
RAAN83.8801
Inclination97.3714
Eccentricity0.0017618
Argument of Perigee351.1322
Mean Anonmoly130.9457
Mean Motion15.235793
Decay Rate1.293E-05
L11 43204U 18015K 18317.83928140 .00001293 00000-0 56810-4 0 9992
L22 43204 97.3714 83.8801 0017618 351.1322 130.9457 15.23579300 42914

Live tracking and technical data element details for NUSAT-5 (MARYAM) (NORAD 43204). NUSAT-5 (MARYAM) can be tracked NOW for your location showing map with azimuth and elevation plus other details from your city location.

Track the satellite on the map from your city or location and see movement details for azimuth, elevation, latitude, longitude, range, height, and movement on the map or in text.







IsCatalogInMostPopularTable: catalog: 43204, numindb: 122
Update: records affected: 1



GetName: 43204 NUSAT-5 (MARYAM)

Hit Count: updated at: Wed, 14 Nov 2018 11:45:37 GMT